BEIDOU-2 IGSO-5

Last updated on Sun Apr 12 2026 00:02:52 GMT+0000 (Coordinated Universal Time)

1 37948U 11073A 26100.93740311 -.00000130 00000+0 00000+0 0 9993 2 37948 47.8035 272.3745 0109929 220.7875 137.7586 1.00264087 52452
UTC large
Height (km)
Speed (km/s)
/
Latitude / Longitude
Inclination (degrees)
Orbital Period (minutes)
Azimuth
Elevation
Range (km)
Doppler Factor

Next 0 passes for location: London (51.5072 / 0.1276)

Sorry there are no passes over London.
BEIDOU-2 IGSO-5